FW1302 Weather Reports


time (UTC)temp
C
wind
direction
speed
KPH
gust
KPH
rain 1hr
cm
rain 24hr
cm
rain mn
cm
humidity
%
barometer
mb
20260510143713 13 224 20.9 25.7 0.00 0.00 0.00 82 1027.9
20260510142715 12 226 16.1 25.7 0.00 0.00 0.00 83 1028.0
20260510140714 12 229 20.9 32.2 0.00 0.00 0.00 82 1027.7
20260510135715 13 225 14.5 20.9 0.00 0.00 0.00 83 1027.7
20260510134813 13 232 8.0 11.3 0.00 0.00 0.00 83 1027.6
20260510133816 13 225 14.5 17.7 0.00 0.00 0.00 83 1027.7
20260510132815 13 229 11.3 16.1 0.00 0.00 0.00 82 1027.7
20260510131816 13 232 8.0 11.3 0.00 0.00 0.00 82 1027.8
20260510130816 13 244 8.0 9.7 0.00 0.00 0.00 83 1027.7
20260510125818 13 225 9.7 14.5 0.00 0.00 0.00 83 1027.7
20260510123816 13 220 9.7 19.3 0.00 0.00 0.00 84 1027.7
20260510122815 13 233 8.0 14.5 0.00 0.00 0.00 83 1027.3
20260510121816 13 225 6.4 9.7 0.00 0.00 0.00 85 1027.5
20260510120817 12 225 4.8 8.0 0.00 0.00 0.00 87 1027.7
20260510115815 12 265 3.2 6.4 0.00 0.00 0.00 88 1027.7
20260510114716 12 232 4.8 6.4 0.00 0.00 0.00 88 1027.6
20260510113718 11 239 4.8 6.4 0.00 0.00 0.00 87 1027.3
20260510112715 11 180 0.0 0.0 0.00 0.00 0.00 87 1027.3
20260510111716 11 135 0.0 0.0 0.00 0.00 0.00 85 1027.3
20260510110714 11 135 0.0 0.0 0.00 0.00 0.00 86 1027.2
20260510110615 11 135 0.0 0.0 0.00 0.00 0.00 86 1027.2
20260510105616 11 135 0.0 0.0 0.00 0.00 0.00 86 1027.1
20260510104615 11 135 0.0 0.0 0.00 0.00 0.00 85 1026.8
20260510103616 11 135 1.6 3.2 0.00 0.00 0.00 85 1026.6
20260510102516 11 135 3.2 3.2 0.00 0.00 0.00 85 1026.7
20260510101517 11 135 0.0 0.0 0.00 0.00 0.00 84 1026.7
20260510100515 11 135 0.0 0.0 0.00 0.00 0.00 84 1027.0
20260510095614 11 135 0.0 0.0 0.00 0.00 0.00 84 1026.8
20260510095516 11 135 0.0 0.0 0.00 0.00 0.00 84 1026.8
20260510094514 12 135 0.0 0.0 0.00 0.00 0.00 84 1026.7
20260510094415 12 135 0.0 0.0 0.00 0.00 0.00 84 1026.6
20260510093415 12 135 0.0 0.0 0.00 0.00 0.00 82 1026.8
20260510092416 12 135 0.0 0.0 0.00 0.00 0.00 81 1026.5
20260510091514 12 135 0.0 0.0 0.00 0.00 0.00 81 1026.4
20260510090516 12 135 0.0 0.0 0.00 0.00 0.00 79 1026.3
20260510084516 12 135 0.0 0.0 0.00 0.00 0.00 80 1026.4
20260510083515 12 135 1.6 3.2 0.00 0.00 0.00 81 1026.6
20260510082515 13 135 0.0 0.0 0.00 0.00 0.00 79 1026.6
20260510081516 13 135 0.0 0.0 0.00 0.00 0.00 79 1026.6
20260510080516 13 135 0.0 0.0 0.00 0.00 0.00 77 1026.7
20260510075518 13 135 0.0 0.0 0.00 0.00 0.00 75 1026.6
20260510073516 13 135 0.0 0.0 0.00 0.00 0.00 73 1026.7
20260510070514 14 135 0.0 0.0 0.00 0.00 0.00 72 1026.6
20260510065521 14 135 0.0 1.6 0.00 0.00 0.00 72 1026.5
20260510064519 14 135 0.0 0.0 0.00 0.00 0.00 71 1026.7
20260510062617 15 135 0.0 1.6 0.00 0.00 0.00 69 1026.6
20260510061619 15 135 0.0 0.0 0.00 0.00 0.00 68 1026.5
20260510060516 15 135 1.6 1.6 0.00 0.00 0.00 68 1026.4
20260510055517 15 135 0.0 1.6 0.00 0.00 0.00 68 1026.3
20260510054518 15 135 0.0 0.0 0.00 0.00 0.00 68 1026.3
20260510053519 15 135 0.0 0.0 0.00 0.00 0.00 68 1026.3
20260510051519 16 135 0.0 0.0 0.00 0.00 0.00 64 1026.0
20260510045617 17 135 0.0 0.0 0.00 0.00 0.00 63 1025.7
20260510044618 17 135 1.6 1.6 0.00 0.00 0.00 61 1025.6
20260510044518 17 135 0.0 1.6 0.00 0.00 0.00 61 1025.6
20260510043520 17 135 0.0 3.2 0.00 0.00 0.00 59 1025.6
20260510042619 17 135 3.2 4.8 0.00 0.00 0.00 62 1025.4
20260510041618 18 247 0.0 0.0 0.00 0.00 0.00 63 1025.4
20260510041517 18 247 0.0 0.0 0.00 0.00 0.00 63 1025.4
20260510040519 18 247 0.0 3.2 0.00 0.00 0.00 63 1025.2
20260510035616 18 247 0.0 1.6 0.00 0.00 0.00 59 1025.1
20260510034619 20 247 1.6 3.2 0.00 0.00 0.00 51 1024.8
20260510032716 21 270 3.2 3.2 0.00 0.00 0.00 47 1024.5
20260510031718 22 225 3.2 6.4 0.00 0.00 0.00 43 1024.5
20260510024819 22 180 0.0 0.0 0.00 0.00 0.00 42 1024.4
20260510022819 23 200 1.6 8.0 0.00 0.00 0.00 42 1024.4
20260510021819 23 222 4.8 6.4 0.00 0.00 0.00 44 1024.3
20260510020817 23 202 6.4 17.7 0.00 0.00 0.00 44 1024.3
20260510015908 23 202 3.2 12.9 0.00 0.00 0.00 44 1024.4
20260510014818 23 225 8.0 11.3 0.00 0.00 0.00 45 1024.4
20260510013819 23 225 6.4 11.3 0.00 0.00 0.00 45 1024.4
20260510012718 24 214 6.4 16.1 0.00 0.00 0.00 46 1024.5
20260510011721 24 200 4.8 17.7 0.00 0.00 0.00 46 1024.6
20260510010720 23 200 6.4 16.1 0.00 0.00 0.00 46 1024.7
20260510005818 23 205 4.8 14.5 0.00 0.00 0.00 48 1024.8
20260510003816 24 225 17.7 24.1 0.00 0.00 0.00 44 1024.7
20260510002824 24 223 17.7 24.1 0.00 0.00 0.00 45 1024.7
20260510001919 25 225 16.1 22.5 0.00 0.00 0.00 44 1024.8
20260510001017 23 222 11.3 16.1 0.00 0.00 0.00 47 1024.7
20260510000017 22 225 11.3 16.1 0.00 0.00 0.00 43 1024.8
20260509235019 21 225 9.7 11.3 0.00 0.00 0.00 44 1024.7
20260509234018 21 45 6.4 8.0 0.00 0.00 0.00 45 1024.8
20260509233116 21 45 9.7 11.3 0.00 0.00 0.00 46 1024.9
20260509232118 21 45 11.3 14.5 0.00 0.00 0.00 46 1025.1
20260509231118 22 45 9.7 11.3 0.00 0.00 0.00 45 1025.2
20260509230117 22 22 9.7 11.3 0.00 0.00 0.00 44 1025.4
20260509225217 22 45 12.9 14.5 0.00 0.00 0.00 44 1025.6
20260509225117 22 45 12.9 16.1 0.00 0.00 0.00 45 1025.6
20260509224118 22 39 12.9 14.5 0.00 0.00 0.00 46 1025.6
20260509222218 21 22 14.5 16.1 0.00 0.00 0.00 49 1026.0
20260509221317 22 29 8.0 9.7 0.00 0.00 0.00 46 1026.2
20260509215318 22 22 17.7 19.3 0.00 0.00 0.00 45 1026.7
20260509214317 22 24 16.1 17.7 0.00 0.00 0.00 44 1026.7
20260509212416 22 26 14.5 17.7 0.00 0.00 0.00 45 1026.9
20260509210420 20 45 6.4 8.0 0.00 0.00 0.00 53 1027.4
20260509205519 20 45 9.7 12.9 0.00 0.00 0.00 52 1027.6
20260509204616 21 22 11.3 12.9 0.00 0.00 0.00 51 1027.7
20260509203519 21 22 11.3 12.9 0.00 0.00 0.00 49 1027.9
20260509202617 21 22 6.4 9.7 0.00 0.00 0.00 48 1028.2
20260509201617 20 45 3.2 4.8 0.00 0.00 0.00 49 1028.3
20260509200618 20 45 4.8 6.4 0.00 0.00 0.00 52 1028.4
20260509195716 20 45 4.8 6.4 0.00 0.00 0.00 53 1028.6
20260509194718 20 45 4.8 6.4 0.00 0.00 0.00 52 1028.8
20260509193716 19 45 6.4 6.4 0.00 0.00 0.00 52 1029.0
20260509190723 18 45 4.8 8.0 0.00 0.00 0.00 58 1029.6
20260509185619 17 45 3.2 4.8 0.00 0.00 0.00 61 1029.8
20260509184618 16 45 8.0 9.7 0.00 0.00 0.00 65 1029.9
20260509183619 16 45 8.0 11.3 0.00 0.00 0.00 69 1030.0
20260509182618 16 45 8.0 9.7 0.00 0.00 0.00 71 1030.1
20260509181718 15 45 8.0 8.0 0.00 0.00 0.00 72 1030.5
20260509175720 16 45 8.0 8.0 0.00 0.00 0.00 68 1030.5
20260509174817 16 45 6.4 6.4 0.00 0.00 0.00 64 1030.6
20260509173818 16 45 6.4 8.0 0.00 0.00 0.00 64 1030.8
20260509172818 16 45 3.2 4.8 0.00 0.00 0.00 67 1030.8
20260509171819 15 45 3.2 4.8 0.00 0.00 0.00 67 1031.1
20260509164818 14 45 6.4 6.4 0.00 0.00 0.00 74 1031.4
20260509162818 13 45 6.4 6.4 0.00 0.00 0.00 74 1031.8
20260509161817 13 45 8.0 9.7 0.00 0.00 0.00 75 1031.8
20260509160916 13 45 9.7 9.7 0.00 0.00 0.00 73 1031.9
20260509155917 15 45 6.4 8.0 0.00 0.00 0.00 69 1032.0
20260509153918 15 67 1.6 1.6 0.00 0.00 0.00 68 1032.3
20260509152917 15 67 3.2 3.2 0.00 0.00 0.00 71 1032.3
20260509151919 13 67 0.0 0.0 0.00 0.00 0.00 73 1032.4
20260509151017 13 67 0.0 0.0 0.00 0.00 0.00 74 1032.5
20260509150116 13 67 0.0 0.0 0.00 0.00 0.00 74 1032.4
20260509145118 13 67 1.6 3.2 0.00 0.00 0.00 76 1032.4